SCP
0 0 0 0 0 0 0 0 0 0 0 0 0 0 0 0 0 0 0 0 0 0 0 0 0 0 0 0 0 0 0 0
0 0 0 0 0 0 0 0 0 0 0 0 0 0 0 0 0 0 0 0 0 0 0 0 0 0 0 0 0 0 0 0
0 0 0 0 0 0 0 0 0 0 0 0 0 0 0 0 0 0 0 0 0 0 0 0 0 0 0 0 0 0 0 0
-0 0 0 0 0 0 0 0 0 0 0 0 0 0 0 0 0 0 0 0 0 0 0 0 0 0 0 0 0 0 0 0
-0 -0 0 0 0 0 0 0 0 0 0 0 0 0 0 0 0 0 0 0 0 0 0 0 0 0 0 0 0 0 0 0
-0 -0 -0 -0 0 0 0 0 0 0 0 0 0 0 0 0 0 0 0 0 0 0 0 0 0 0 0 0 0 0 0 0
-0 -0 -0 -0 -0 0 0 0 0 0 0 0 0 0 0 0 0 0 0 0 0 0 0 0 0 0 0 0 0 0 0 0
0 -0 -0 -0 -0 -0 0 0 0 0 0 -0 -0 -0 -0 0 0 0 0 0 0 0 0 0 0 0 0 0 0 0 0 0
0 -0 -0 -0 -0 -0 -0 0 -0 0 -0 -0 -0 -0 -0 0 -0 0 0 0 0 0 0 0 0 0 0 0 0 0 0 0
0 0 0 -0 -0 -0 -0 0 -0 0 0 -0 -0 -0 -0 0 -0 0 0 0 0 0 0 -0 -0 -0 -0 -0 0 0 0 0
0 0 0 0 0 0 -0 0 0 -0 -0 -0 0 0 0 0 0 0 0 0 0 -0 -0 -0 -0 -0 -0 -0 0 0 0 0
-0 0 0 0 0 0 0 0 0 0 0 0 0 0 0 0 0 0 0 0 0 -0 -0 -0 -0 -0 -0 -0 0 0 0 0
0 -0 0 0 0 0 0 0 0 0 0 0 0 0 0 0 0 0 0 0 0 -0 -0 0 -0 -0 -0 -0 -0 -0 -0 -0
-0 0 0 0 0 0 0 0 0 0 0 0 0 0 0 0 0 0 0 0 -0 -0 0 -0 -0 -0 0 0 -0 -0 -0 -0
0 0 0 0 0 0 0 0 0 0 0 0 0 0 0 -0 -0 -0 -0 -0 -0 0 0 0 0 0 -0 -0 -0 -0 -0 -0
0 0 0 0 0 0 0 0 -0 -0 -0 -0 -0 -0 -0 -0 -0 -0 -0 -0 0 0 0 0 0 -0 -0 -0 -0 -0 -0 -0
0 0 0 0 0 0 0 -0 -0 -0 -0 -0 -0 -0 -0 -0 -0 -0 0 0 0 0 -0 -0 -0 -0 -0 -0 -0 0 -0 -0
-0 -0 0 0 0 0 -0 -0 -0 -0 -0 -0 -0 -0 -0 -0 0 0 0 0 0 0 -0 -0 -0 -0 -0 -0 0 0 0 -0
-0 -0 -0 -0 -0 -0 -0 0 -0 -0 -0 -0 -0 -0 -0 0 0 0 0 0 0 -0 0 0 0 0 0 -0 0 0 0 -0
0 0 0 0 0 0 0 0 0 0 0 0 -0 0 0 0 0 0 0 0 0 0 0 0 0 0 0 0 0 -0 -0 -0
Wind_Speed_500mb
54 51 49 45 41 36 35 32 29 29 32 37 39 39 48 51 42 44 41 35 27 22 21 26 31 38 49 54 77 53 66 64
52 48 48 44 42 35 31 27 23 24 24 27 36 38 34 35 43 36 30 24 27 23 23 25 26 32 35 44 49 48 53 63
41 45 44 45 45 40 36 29 26 19 18 21 21 22 23 24 28 30 33 33 31 27 27 28 34 39 44 43 43 45 45 53
38 40 43 44 44 43 38 32 29 23 14 11 6 7 15 21 26 27 31 33 32 25 29 32 32 36 39 38 35 38 43 36
39 40 36 40 42 42 39 35 30 19 11 9 4 12 19 18 22 21 25 23 24 20 17 21 15 15 17 20 21 25 25 30
39 41 38 36 43 43 44 42 38 32 22 22 15 19 23 26 21 19 18 19 14 14 13 9 10 9 7 10 11 16 22 27
29 34 39 38 40 45 43 41 34 35 35 26 21 18 22 27 26 21 23 18 16 13 9 3 4 6 9 12 14 17 16 15
24 29 33 36 34 36 39 36 32 40 38 34 35 27 23 20 29 27 24 21 14 15 15 16 18 19 20 19 16 20 21 22
15 20 24 28 30 31 33 34 35 40 39 43 44 38 31 26 37 37 33 33 33 33 31 28 30 29 30 30 28 28 27 28
8 17 23 23 28 29 28 31 32 38 39 40 34 33 34 34 37 42 40 37 36 37 34 35 36 35 32 31 31 33 33 33
6 14 18 18 21 23 26 26 35 38 37 37 35 33 32 32 33 38 37 39 38 38 36 34 35 38 35 35 35 37 40 38
5 7 11 15 18 20 22 23 32 35 32 33 29 27 32 30 31 32 32 33 35 34 34 33 35 36 37 38 36 39 37 39
8 3 4 10 13 15 15 20 24 27 27 25 24 26 25 23 24 25 26 27 30 31 33 35 37 36 38 40 41 42 43 53
15 11 4 1 7 11 13 15 18 20 21 19 20 22 21 19 19 21 23 26 29 30 33 36 36 38 41 41 43 46 53 54
24 19 13 9 3 4 7 8 10 12 13 13 13 14 15 16 19 20 23 25 28 31 34 38 39 40 41 43 46 49 50 48
26 24 21 17 12 5 1 3 4 6 8 9 9 10 13 15 17 19 20 21 23 27 33 38 43 47 46 44 46 47 46 38
32 31 31 26 21 16 11 8 7 6 4 4 5 6 6 7 10 11 12 15 25 32 35 36 35 35 37 41 40 38 39 36
34 31 35 36 32 26 22 17 14 12 11 8 7 6 5 5 6 7 7 14 22 24 24 23 24 31 34 35 35 36 34 39
35 38 42 44 42 38 33 28 23 19 18 15 12 11 10 9 8 5 5 10 13 13 14 16 20 26 27 28 30 29 36 42
46 44 48 51 48 49 44 39 33 28 25 21 18 16 15 14 13 8 3 2 6 8 12 15 18 20 21 23 25 32 36 39
Wind_Direction_500mb
3 4 2 358 356 346 341 336 320 297 275 257 245 240 234 232 242 246 247 249 255 263 277 290 282 269 277 269 270 276 273 271
2 5 7 7 6 359 351 343 333 324 305 274 253 245 242 247 236 243 248 245 250 256 262 279 292 294 296 284 285 275 295 290
2 6 13 18 16 13 4 352 342 338 343 335 282 254 228 236 219 232 236 239 246 252 257 270 277 282 283 283 278 281 277 272
3 15 15 24 28 24 20 15 359 347 359 352 309 233 206 206 226 232 238 237 243 248 256 262 267 276 273 266 285 281 276 275
8 13 20 25 31 35 37 35 33 18 27 53 132 145 193 206 184 203 226 242 250 252 254 244 234 257 253 254 248 260 260 273
8 10 14 22 31 37 39 39 36 36 40 66 97 121 132 142 166 193 203 198 193 173 194 208 230 233 252 262 265 285 289 295
11 15 16 22 35 35 38 44 42 52 52 55 62 91 115 131 136 155 161 162 148 145 138 123 313 323 313 311 314 310 308 327
11 22 22 27 32 41 42 44 54 65 61 52 57 59 55 75 105 114 104 99 97 94 84 74 71 65 59 48 39 39 32 29
15 28 34 33 42 47 46 56 57 66 70 68 62 68 71 80 84 92 95 96 90 84 80 79 78 68 60 53 49 47 43 38
26 37 38 37 41 48 48 52 66 69 71 75 76 74 76 80 84 86 86 89 89 86 82 77 76 71 67 60 58 54 48 40
61 46 40 36 46 47 55 57 67 65 65 70 73 76 79 79 80 82 85 83 82 77 70 68 69 65 60 56 51 48 43 38
115 57 44 38 38 46 53 67 68 71 68 70 69 74 74 74 76 75 77 79 78 75 72 68 65 64 59 55 53 53 48 42
181 165 47 35 41 49 57 67 74 74 71 68 67 68 72 73 78 81 81 83 83 80 78 71 66 64 60 55 51 47 42 39
208 207 207 145 39 40 53 65 73 76 74 69 68 72 73 76 82 91 92 91 90 89 87 84 78 68 60 53 46 41 38 35
221 217 218 219 216 69 72 82 95 99 96 91 88 93 96 96 97 97 101 98 93 89 82 77 74 69 62 52 44 39 37 33
232 226 225 226 230 253 262 127 119 100 80 67 66 70 72 77 83 82 85 91 96 92 78 68 59 53 49 47 41 35 34 27
235 231 229 228 227 232 244 239 216 190 170 124 103 100 93 100 100 96 94 92 75 61 57 56 56 54 50 46 39 33 33 22
239 237 233 234 232 232 238 241 238 229 219 208 198 186 170 159 143 113 89 74 68 66 61 56 53 51 45 43 39 33 32 32
234 231 228 232 232 234 237 241 242 238 233 229 223 211 204 195 188 147 74 51 53 56 53 46 43 50 44 38 37 37 39 39
232 231 230 232 229 233 235 238 241 240 239 237 236 231 222 218 211 195 168 31 8 13 21 24 21 33 36 38 37 42 42 40
Wind_Speed_850mb
54 51 49 45 41 36 35 32 29 29 32 37 39 39 48 51 42 44 41 35 27 22 21 26 31 38 49 54 77 53 66 64
52 48 48 44 42 35 31 27 23 24 24 27 36 38 34 35 43 36 30 24 27 23 23 25 26 32 35 44 49 48 53 63
41 45 44 45 45 40 36 29 26 19 18 21 21 22 23 24 28 30 33 33 31 27 27 28 34 39 44 43 43 45 45 53
38 40 43 44 44 43 38 32 29 23 14 11 6 7 15 21 26 27 31 33 32 25 29 32 32 36 39 38 35 38 43 36
39 40 36 40 42 42 39 35 30 19 11 9 4 12 19 18 22 21 25 23 24 20 17 21 15 15 17 20 21 25 25 30
39 41 38 36 43 43 44 42 38 32 22 22 15 19 23 26 21 19 18 19 14 14 13 9 10 9 7 10 11 16 22 27
29 34 39 38 40 45 43 41 34 35 35 26 21 18 22 27 26 21 23 18 16 13 9 3 4 6 9 12 14 17 16 15
24 29 33 36 34 36 39 36 32 40 38 34 35 27 23 20 29 27 24 21 14 15 15 16 18 19 20 19 16 20 21 22
15 20 24 28 30 31 33 34 35 40 39 43 44 38 31 26 37 37 33 33 33 33 31 28 30 29 30 30 28 28 27 28
8 17 23 23 28 29 28 31 32 38 39 40 34 33 34 34 37 42 40 37 36 37 34 35 36 35 32 31 31 33 33 33
6 14 18 18 21 23 26 26 35 38 37 37 35 33 32 32 33 38 37 39 38 38 36 34 35 38 35 35 35 37 40 38
5 7 11 15 18 20 22 23 32 35 32 33 29 27 32 30 31 32 32 33 35 34 34 33 35 36 37 38 36 39 37 39
8 3 4 10 13 15 15 20 24 27 27 25 24 26 25 23 24 25 26 27 30 31 33 35 37 36 38 40 41 42 43 53
15 11 4 1 7 11 13 15 18 20 21 19 20 22 21 19 19 21 23 26 29 30 33 36 36 38 41 41 43 46 53 54
24 19 13 9 3 4 7 8 10 12 13 13 13 14 15 16 19 20 23 25 28 31 34 38 39 40 41 43 46 49 50 48
26 24 21 17 12 5 1 3 4 6 8 9 9 10 13 15 17 19 20 21 23 27 33 38 43 47 46 44 46 47 46 38
32 31 31 26 21 16 11 8 7 6 4 4 5 6 6 7 10 11 12 15 25 32 35 36 35 35 37 41 40 38 39 36
34 31 35 36 32 26 22 17 14 12 11 8 7 6 5 5 6 7 7 14 22 24 24 23 24 31 34 35 35 36 34 39
35 38 42 44 42 38 33 28 23 19 18 15 12 11 10 9 8 5 5 10 13 13 14 16 20 26 27 28 30 29 36 42
46 44 48 51 48 49 44 39 33 28 25 21 18 16 15 14 13 8 3 2 6 8 12 15 18 20 21 23 25 32 36 39
Wind_Direction_850mb
3 4 2 358 356 346 341 336 320 297 275 257 245 240 234 232 242 246 247 249 255 263 277 290 282 269 277 269 270 276 273 271
2 5 7 7 6 359 351 343 333 324 305 274 253 245 242 247 236 243 248 245 250 256 262 279 292 294 296 284 285 275 295 290
2 6 13 18 16 13 4 352 342 338 343 335 282 254 228 236 219 232 236 239 246 252 257 270 277 282 283 283 278 281 277 272
3 15 15 24 28 24 20 15 359 347 359 352 309 233 206 206 226 232 238 237 243 248 256 262 267 276 273 266 285 281 276 275
8 13 20 25 31 35 37 35 33 18 27 53 132 145 193 206 184 203 226 242 250 252 254 244 234 257 253 254 248 260 260 273
8 10 14 22 31 37 39 39 36 36 40 66 97 121 132 142 166 193 203 198 193 173 194 208 230 233 252 262 265 285 289 295
11 15 16 22 35 35 38 44 42 52 52 55 62 91 115 131 136 155 161 162 148 145 138 123 313 323 313 311 314 310 308 327
11 22 22 27 32 41 42 44 54 65 61 52 57 59 55 75 105 114 104 99 97 94 84 74 71 65 59 48 39 39 32 29
15 28 34 33 42 47 46 56 57 66 70 68 62 68 71 80 84 92 95 96 90 84 80 79 78 68 60 53 49 47 43 38
26 37 38 37 41 48 48 52 66 69 71 75 76 74 76 80 84 86 86 89 89 86 82 77 76 71 67 60 58 54 48 40
61 46 40 36 46 47 55 57 67 65 65 70 73 76 79 79 80 82 85 83 82 77 70 68 69 65 60 56 51 48 43 38
115 57 44 38 38 46 53 67 68 71 68 70 69 74 74 74 76 75 77 79 78 75 72 68 65 64 59 55 53 53 48 42
181 165 47 35 41 49 57 67 74 74 71 68 67 68 72 73 78 81 81 83 83 80 78 71 66 64 60 55 51 47 42 39
208 207 207 145 39 40 53 65 73 76 74 69 68 72 73 76 82 91 92 91 90 89 87 84 78 68 60 53 46 41 38 35
221 217 218 219 216 69 72 82 95 99 96 91 88 93 96 96 97 97 101 98 93 89 82 77 74 69 62 52 44 39 37 33
232 226 225 226 230 253 262 127 119 100 80 67 66 70 72 77 83 82 85 91 96 92 78 68 59 53 49 47 41 35 34 27
235 231 229 228 227 232 244 239 216 190 170 124 103 100 93 100 100 96 94 92 75 61 57 56 56 54 50 46 39 33 33 22
239 237 233 234 232 232 238 241 238 229 219 208 198 186 170 159 143 113 89 74 68 66 61 56 53 51 45 43 39 33 32 32
234 231 228 232 232 234 237 241 242 238 233 229 223 211 204 195 188 147 74 51 53 56 53 46 43 50 44 38 37 37 39 39
232 231 230 232 229 233 235 238 241 240 239 237 236 231 222 218 211 195 168 31 8 13 21 24 21 33 36 38 37 42 42 40